FW9813 Weather Reports


Display with metric or nautical units.
time (UTC)temp
F
wind
direction
speed
MPH
gust
MPH
rain 1hr
in
rain 24hr
in
rain mn
in
humidity
%
barometer
mb
20260901224552 84 153 0.0 3.0 0.00 0.00 0.00 48 1013.5
20260901223101 84 0 0.0 2.0 0.00 0.00 0.00 47 1013.5
20260901221549 84 0 0.0 3.0 0.00 0.00 0.00 46 1013.4
20260901220106 84 0 0.0 5.0 0.00 0.00 0.00 43 1013.1
20260901214552 85 146 0.0 6.0 0.00 0.00 0.00 41 1013.2
20260901213050 85 112 0.0 3.0 0.00 0.00 0.00 39 1013.1
20260901211547 86 113 0.0 1.0 0.00 0.00 0.00 39 1013.0
20260901210047 86 111 0.0 3.0 0.00 0.00 0.00 39 1013.0
20260901204546 87 130 0.0 5.0 0.00 0.00 0.00 38 1013.0
20260901203054 88 123 0.0 4.0 0.00 0.00 0.00 39 1013.3
20260901201553 89 110 1.0 6.0 0.00 0.00 0.00 37 1013.4
20260901200047 88 0 0.0 3.0 0.00 0.00 0.00 38 1013.4
20260901194558 87 148 0.0 3.0 0.00 0.00 0.00 39 1013.5
20260901193052 85 339 1.0 3.0 0.00 0.00 0.00 40 1013.6
20260901191605 85 352 1.0 4.0 0.00 0.00 0.00 42 1013.6
20260901190057 86 209 2.0 9.0 0.00 0.00 0.00 39 1013.8
20260901184607 84 61 0.0 2.0 0.00 0.00 0.00 41 1013.8
20260901183053 84 184 1.0 5.0 0.00 0.00 0.00 43 1014.1
20260901181559 83 0 1.0 4.0 0.00 0.00 0.00 45 1014.1
20260901180048 83 0 0.0 4.0 0.00 0.00 0.00 45 1014.5
20260901174600 82 123 0.0 4.0 0.00 0.00 0.00 45 1014.6
20260901173054 81 0 0.0 2.0 0.00 0.00 0.00 51 1014.9
20260901171547 80 342 1.0 4.0 0.00 0.00 0.00 52 1014.8
20260901170048 79 343 1.0 2.0 0.00 0.00 0.00 55 1014.9
20260901164603 78 344 1.0 4.0 0.00 0.00 0.00 57 1015.0
20260901163055 77 352 2.0 5.0 0.00 0.00 0.00 61 1014.8
20260901161604 76 222 0.0 3.0 0.00 0.00 0.00 64 1014.9
20260901160106 76 171 0.0 3.0 0.00 0.00 0.00 63 1015.0
20260901154547 75 246 1.0 3.0 0.00 0.00 0.00 66 1015.1
20260901153111 75 0 1.0 4.0 0.00 0.00 0.00 67 1015.2
20260901150046 73 236 0.0 6.0 0.00 0.00 0.00 71 1015.2
20260901144548 73 205 2.0 4.0 0.00 0.00 0.00 72 1015.1
20260901141548 71 205 1.0 5.0 0.00 0.00 0.00 77 1015.0
20260901140053 69 247 1.0 4.0 0.00 0.00 0.00 85 1015.1
20260901134543 67 220 1.0 4.0 0.00 0.00 0.00 92 1015.3
20260901133048 65 0 0.0 4.0 0.00 0.00 0.00 95 1015.2
20260901131551 63 0 0.0 0.0 0.00 0.00 0.00 96 1015.0
20260901130046 62 0 0.0 0.0 0.00 0.00 0.00 95 1014.8
20260901124554 61 0 0.0 0.0 0.00 0.00 0.00 95 1014.7
20260901123059 59 0 0.0 0.0 0.00 0.00 0.00 94 1014.9
20260901121547 59 0 0.0 0.0 0.00 0.00 0.00 94 1014.6
20260901120056 59 0 0.0 0.0 0.00 0.00 0.00 93 1014.2
20260901114550 59 0 0.0 0.0 0.00 0.00 0.00 93 1014.2
20260901113056 59 0 0.0 0.0 0.00 0.00 0.00 93 1014.1
20260901111602 59 0 0.0 0.0 0.00 0.00 0.00 93 1013.9
20260901110048 59 0 0.0 0.0 0.00 0.00 0.00 93 1013.8
20260901104548 60 0 0.0 0.0 0.00 0.00 0.00 93 1013.8
20260901103056 60 0 0.0 0.0 0.00 0.00 0.00 93 1013.7
20260901101553 60 0 0.0 0.0 0.00 0.00 0.00 93 1013.9
20260901100054 60 0 0.0 0.0 0.00 0.00 0.00 93 1013.7
20260901094547 60 0 0.0 0.0 0.00 0.00 0.00 93 1013.5
20260901093054 61 0 0.0 0.0 0.00 0.00 0.00 93 1013.4
20260901091547 61 0 0.0 0.0 0.00 0.00 0.00 92 1013.3
20260901090047 61 0 0.0 0.0 0.00 0.00 0.00 92 1013.1
20260901084557 61 0 0.0 0.0 0.00 0.00 0.00 92 1013.2
20260901083052 61 0 0.0 0.0 0.00 0.00 0.00 91 1013.2
20260901081548 61 0 0.0 0.0 0.00 0.00 0.00 92 1013.1
20260901080049 62 0 0.0 0.0 0.00 0.00 0.00 92 1013.2
20260901074558 62 0 0.0 0.0 0.00 0.00 0.00 91 1013.2
20260901073050 62 0 0.0 0.0 0.00 0.00 0.00 91 1013.4
20260901071548 62 0 0.0 0.0 0.00 0.00 0.00 91 1013.7
20260901070051 63 0 0.0 0.0 0.00 0.00 0.00 90 1013.8
20260901064555 63 0 0.0 0.0 0.00 0.00 0.00 90 1013.8
20260901063104 63 0 0.0 0.0 0.00 0.00 0.00 89 1013.9
20260901061627 64 0 0.0 0.0 0.00 0.00 0.00 89 1013.9
20260901060056 64 0 0.0 0.0 0.00 0.00 0.00 89 1013.7
20260901054547 65 0 0.0 0.0 0.00 0.00 0.00 89 1013.7
20260901053106 65 0 0.0 0.0 0.00 0.00 0.00 88 1013.8
20260901051548 66 0 0.0 0.0 0.00 0.00 0.00 88 1013.7
20260901050048 66 0 0.0 0.0 0.00 0.00 0.00 87 1013.5
20260901044601 67 0 0.0 0.0 0.00 0.00 0.00 87 1013.5
20260901043049 67 0 0.0 0.0 0.00 0.00 0.00 85 1013.4
20260901041546 67 0 0.0 0.0 0.00 0.00 0.00 83 1013.1
20260901040049 68 0 0.0 0.0 0.00 0.00 0.00 82 1013.2
20260901034553 69 0 0.0 0.0 0.00 0.00 0.00 81 1013.3
20260901033049 69 0 0.0 0.0 0.00 0.00 0.00 80 1013.3
20260901031557 70 0 0.0 0.0 0.00 0.00 0.00 79 1013.1
20260901030048 71 0 0.0 0.0 0.00 0.00 0.00 76 1013.0
20260901024555 71 0 0.0 0.0 0.00 0.00 0.00 75 1012.9
20260901023048 72 0 0.0 0.0 0.00 0.00 0.00 73 1012.9
20260901021549 73 0 0.0 0.0 0.00 0.00 0.00 71 1012.8
20260901020112 75 0 0.0 0.0 0.00 0.00 0.00 68 1012.7
20260901014553 76 0 0.0 0.0 0.00 0.00 0.00 65 1012.5
20260901011600 79 0 0.0 0.0 0.00 0.00 0.00 60 1012.2
20260901010054 80 0 0.0 0.0 0.00 0.00 0.00 58 1012.0
20260901004600 82 0 0.0 0.0 0.00 0.00 0.00 56 1012.1
20260901003046 84 0 0.0 0.0 0.00 0.00 0.00 53 1012.0
20260901001549 85 0 0.0 1.0 0.00 0.00 0.00 50 1012.0
20260901000104 85 0 0.0 2.0 0.00 0.00 0.00 49 1012.0
20260831234557 86 0 0.0 1.0 0.00 0.00 0.00 47 1011.9
20260831233049 86 0 0.0 2.0 0.00 0.00 0.00 50 1011.9
20260831231550 87 9 1.0 3.0 0.00 0.00 0.00 46 1011.9